| time (UTC) | temp F | wind direction | speed MPH | gust MPH | rain 1hr in | rain 24hr in | rain mn in | humidity % | barometer mb |
| 20260509184541 | 81 | 325 | 3.0 | 8.0 | 0.00 | 0.14 | 0.01 | 30 | 1009.7 |
| 20260509183039 | 80 | 211 | 2.0 | 8.0 | 0.00 | 0.14 | 0.01 | 29 | 1010.0 |
| 20260509181537 | 79 | 214 | 3.0 | 8.0 | 0.00 | 0.14 | 0.01 | 30 | 1010.1 |
| 20260509180048 | 79 | 202 | 1.0 | 5.0 | 0.00 | 0.14 | 0.01 | 33 | 1010.2 |
| 20260509174534 | 78 | 247 | 1.0 | 5.0 | 0.00 | 0.14 | 0.01 | 35 | 1010.3 |
| 20260509173034 | 76 | 269 | 2.0 | 7.0 | 0.00 | 0.14 | 0.01 | 34 | 1010.5 |
| 20260509171535 | 76 | 142 | 0.0 | 9.0 | 0.00 | 0.14 | 0.01 | 34 | 1010.6 |
| 20260509170026 | 74 | 103 | 0.0 | 4.0 | 0.00 | 0.14 | 0.01 | 39 | 1010.7 |
| 20260509164523 | 74 | 253 | 1.0 | 5.0 | 0.00 | 0.14 | 0.01 | 41 | 1010.7 |
| 20260509163019 | 73 | 169 | 2.0 | 4.0 | 0.00 | 0.14 | 0.01 | 43 | 1010.5 |
| 20260509161517 | 72 | 227 | 1.0 | 4.0 | 0.00 | 0.14 | 0.01 | 44 | 1010.5 |
| 20260509160016 | 71 | 263 | 0.0 | 5.0 | 0.00 | 0.14 | 0.01 | 44 | 1010.5 |
| 20260509154512 | 70 | 214 | 0.0 | 3.0 | 0.00 | 0.14 | 0.01 | 46 | 1010.7 |
| 20260509153026 | 69 | 271 | 2.0 | 6.0 | 0.00 | 0.14 | 0.01 | 44 | 1010.6 |
| 20260509151506 | 67 | 140 | 1.0 | 5.0 | 0.00 | 0.14 | 0.01 | 43 | 1010.6 |
| 20260509150003 | 67 | 257 | 1.0 | 5.0 | 0.00 | 0.14 | 0.01 | 46 | 1010.5 |
| 20260509144600 | 65 | 266 | 1.0 | 9.0 | 0.00 | 0.14 | 0.01 | 45 | 1010.5 |
| 20260509143059 | 64 | 250 | 1.0 | 5.0 | 0.00 | 0.14 | 0.01 | 50 | 1010.4 |
| 20260509141552 | 63 | 244 | 3.0 | 7.0 | 0.00 | 0.14 | 0.01 | 53 | 1010.4 |
| 20260509134544 | 59 | 232 | 1.0 | 3.0 | 0.00 | 0.14 | 0.01 | 67 | 1010.6 |
| 20260509133040 | 57 | 315 | 1.0 | 4.0 | 0.00 | 0.14 | 0.01 | 68 | 1010.3 |
| 20260509131537 | 56 | 318 | 0.0 | 2.0 | 0.00 | 0.14 | 0.01 | 69 | 1010.4 |
| 20260509130033 | 55 | 295 | 1.0 | 3.0 | 0.00 | 0.14 | 0.01 | 70 | 1010.3 |
| 20260509124528 | 54 | 323 | 0.0 | 3.0 | 0.00 | 0.14 | 0.01 | 70 | 1010.1 |
| 20260509123025 | 53 | 329 | 1.0 | 3.0 | 0.00 | 0.14 | 0.01 | 70 | 1010.1 |
| 20260509121520 | 52 | 278 | 0.0 | 1.0 | 0.00 | 0.14 | 0.01 | 70 | 1009.9 |
| 20260509120018 | 50 | 278 | 0.0 | 0.0 | 0.00 | 0.14 | 0.01 | 70 | 1009.8 |
| 20260509114518 | 49 | 278 | 0.0 | 0.0 | 0.00 | 0.14 | 0.01 | 70 | 1009.6 |
| 20260509113018 | 48 | 278 | 0.0 | 0.0 | 0.01 | 0.14 | 0.01 | 70 | 1009.2 |
| 20260509111517 | 48 | 278 | 0.0 | 0.0 | 0.01 | 0.14 | 0.01 | 70 | 1009.2 |
| 20260509110017 | 49 | 278 | 0.0 | 0.0 | 0.01 | 0.14 | 0.01 | 70 | 1009.1 |
| 20260509104516 | 50 | 278 | 0.0 | 0.0 | 0.01 | 0.14 | 0.01 | 70 | 1009.2 |
| 20260509103016 | 51 | 278 | 0.0 | 1.0 | 0.00 | 0.13 | 0.00 | 70 | 1009.1 |
| 20260509101514 | 51 | 278 | 0.0 | 0.0 | 0.00 | 0.13 | 0.00 | 70 | 1009.3 |
| 20260509100013 | 50 | 278 | 0.0 | 0.0 | 0.00 | 0.13 | 0.00 | 70 | 1009.2 |
| 20260509094514 | 50 | 278 | 0.0 | 1.0 | 0.00 | 0.13 | 0.00 | 70 | 1009.3 |
| 20260509093011 | 49 | 278 | 0.0 | 0.0 | 0.00 | 0.13 | 0.00 | 70 | 1009.2 |
| 20260509091510 | 48 | 278 | 0.0 | 0.0 | 0.00 | 0.13 | 0.00 | 70 | 1009.1 |
| 20260509090010 | 48 | 278 | 0.0 | 0.0 | 0.00 | 0.13 | 0.00 | 70 | 1009.1 |
| 20260509084508 | 49 | 278 | 0.0 | 0.0 | 0.00 | 0.13 | 0.00 | 70 | 1009.0 |
| 20260509083009 | 49 | 278 | 0.0 | 0.0 | 0.00 | 0.13 | 0.00 | 70 | 1009.0 |
| 20260509081508 | 49 | 278 | 0.0 | 0.0 | 0.00 | 0.13 | 0.00 | 70 | 1009.1 |
| 20260509080007 | 48 | 278 | 0.0 | 0.0 | 0.00 | 0.13 | 0.00 | 69 | 1009.1 |
| 20260509074505 | 49 | 278 | 0.0 | 0.0 | 0.00 | 0.13 | 0.00 | 69 | 1009.0 |
| 20260509073010 | 49 | 278 | 0.0 | 0.0 | 0.00 | 0.13 | 0.00 | 69 | 1009.1 |
| 20260509071504 | 50 | 278 | 0.0 | 0.0 | 0.00 | 0.13 | 0.00 | 69 | 1009.2 |
| 20260509070001 | 50 | 278 | 0.0 | 0.0 | 0.00 | 0.13 | 0.00 | 69 | 1009.4 |
| 20260509064601 | 49 | 278 | 0.0 | 0.0 | 0.00 | 0.13 | 0.00 | 69 | 1009.6 |
| 20260509063105 | 49 | 278 | 0.0 | 0.0 | 0.00 | 0.13 | 0.00 | 69 | 1009.6 |
| 20260509061559 | 49 | 278 | 0.0 | 0.0 | 0.00 | 0.13 | 0.00 | 69 | 1009.6 |
| 20260509060117 | 49 | 278 | 0.0 | 0.0 | 0.00 | 0.13 | 0.00 | 68 | 1009.7 |
| 20260509054556 | 49 | 278 | 0.0 | 0.0 | 0.00 | 0.13 | 0.00 | 69 | 1009.7 |
| 20260509053111 | 49 | 278 | 0.0 | 0.0 | 0.00 | 0.13 | 0.00 | 68 | 1009.7 |
| 20260509051603 | 50 | 278 | 0.0 | 0.0 | 0.00 | 0.13 | 0.00 | 68 | 1009.7 |
| 20260509050053 | 50 | 278 | 0.0 | 0.0 | 0.00 | 0.13 | 0.13 | 68 | 1009.8 |
| 20260509044551 | 50 | 278 | 0.0 | 0.0 | 0.00 | 0.13 | 0.13 | 67 | 1009.7 |
| 20260509043055 | 50 | 278 | 0.0 | 0.0 | 0.00 | 0.13 | 0.13 | 67 | 1009.8 |
| 20260509041549 | 51 | 278 | 0.0 | 0.0 | 0.00 | 0.13 | 0.13 | 67 | 1010.0 |
| 20260509034546 | 51 | 278 | 0.0 | 0.0 | 0.00 | 0.13 | 0.13 | 66 | 1010.1 |
| 20260509033107 | 52 | 278 | 0.0 | 0.0 | 0.00 | 0.13 | 0.13 | 65 | 1010.1 |
| 20260509031543 | 52 | 278 | 0.0 | 0.0 | 0.00 | 0.13 | 0.13 | 64 | 1009.9 |
| 20260509030043 | 52 | 278 | 0.0 | 0.0 | 0.00 | 0.13 | 0.13 | 64 | 1009.8 |
| 20260509024547 | 53 | 278 | 0.0 | 0.0 | 0.00 | 0.13 | 0.13 | 63 | 1009.4 |
| 20260509023039 | 54 | 278 | 0.0 | 0.0 | 0.00 | 0.13 | 0.13 | 62 | 1009.5 |
| 20260509021539 | 54 | 278 | 0.0 | 0.0 | 0.00 | 0.13 | 0.13 | 61 | 1009.5 |
| 20260509020038 | 55 | 278 | 0.0 | 0.0 | 0.00 | 0.13 | 0.13 | 60 | 1009.3 |
| 20260509014538 | 56 | 278 | 0.0 | 0.0 | 0.00 | 0.13 | 0.13 | 60 | 1009.2 |
| 20260509013038 | 57 | 278 | 0.0 | 0.0 | 0.00 | 0.13 | 0.13 | 60 | 1009.0 |
| 20260509011539 | 58 | 278 | 0.0 | 0.0 | 0.00 | 0.13 | 0.13 | 59 | 1009.0 |
| 20260509010039 | 59 | 278 | 0.0 | 0.0 | 0.00 | 0.13 | 0.13 | 59 | 1008.7 |
| 20260509004536 | 60 | 278 | 0.0 | 0.0 | 0.00 | 0.13 | 0.13 | 58 | 1008.4 |
| 20260509003036 | 61 | 278 | 0.0 | 1.0 | 0.00 | 0.13 | 0.13 | 56 | 1008.4 |
| 20260509001536 | 62 | 278 | 0.0 | 3.0 | 0.00 | 0.13 | 0.13 | 56 | 1008.0 |
| 20260509000035 | 62 | 277 | 0.0 | 1.0 | 0.00 | 0.13 | 0.13 | 54 | 1008.0 |
| 20260508234534 | 63 | 275 | 0.0 | 3.0 | 0.00 | 0.13 | 0.13 | 54 | 1008.3 |
| 20260508233037 | 63 | 308 | 1.0 | 5.0 | 0.00 | 0.13 | 0.13 | 54 | 1008.6 |
| 20260508231533 | 62 | 315 | 0.0 | 4.0 | 0.01 | 0.13 | 0.13 | 56 | 1008.6 |
| 20260508230032 | 61 | 317 | 0.0 | 4.0 | 0.02 | 0.13 | 0.13 | 55 | 1008.3 |
| 20260508224535 | 61 | 323 | 0.0 | 2.0 | 0.06 | 0.13 | 0.13 | 58 | 1008.2 |
| 20260508223033 | 59 | 311 | 0.0 | 3.0 | 0.07 | 0.13 | 0.13 | 60 | 1007.2 |
| 20260508221529 | 58 | 300 | 0.0 | 2.0 | 0.08 | 0.12 | 0.12 | 60 | 1008.2 |
| 20260508220026 | 57 | 300 | 0.0 | 0.0 | 0.10 | 0.11 | 0.11 | 60 | 1009.1 |
| 20260508214527 | 57 | 300 | 0.0 | 0.0 | 0.07 | 0.07 | 0.07 | 60 | 1009.7 |
| 20260508213023 | 59 | 300 | 0.0 | 0.0 | 0.06 | 0.06 | 0.06 | 60 | 1009.8 |
| 20260508211522 | 59 | 300 | 0.0 | 2.0 | 0.04 | 0.04 | 0.04 | 60 | 1010.0 |
| 20260508210031 | 60 | 300 | 0.0 | 2.0 | 0.01 | 0.01 | 0.01 | 61 | 1010.2 |
| 20260508204521 | 61 | 304 | 0.0 | 1.0 | 0.00 | 0.00 | 0.00 | 59 | 1010.0 |
| 20260508203028 | 63 | 304 | 0.0 | 3.0 | 0.00 | 0.00 | 0.00 | 56 | 1009.6 |
| 20260508201520 | 64 | 306 | 0.0 | 2.0 | 0.00 | 0.00 | 0.00 | 54 | 1009.7 |
| 20260508200023 | 64 | 306 | 0.0 | 4.0 | 0.00 | 0.00 | 0.00 | 52 | 1010.1 |
| 20260508194521 | 63 | 323 | 0.0 | 0.0 | 0.00 | 0.00 | 0.00 | 51 | 1010.0 |
| 20260508193018 | 64 | 323 | 0.0 | 0.0 | 0.00 | 0.00 | 0.00 | 48 | 1009.6 |
| 20260508191516 | 64 | 323 | 0.0 | 2.0 | 0.00 | 0.00 | 0.00 | 50 | 1010.1 |
| 20260508190015 | 64 | 324 | 0.0 | 2.0 | 0.00 | 0.00 | 0.00 | 48 | 1009.8 |